Flag for Germany Weather past 2 weeks in Münster, North Rhine-Westphalia, Germany

Now
70 °F

Sunny.


Feels Like: 70 °F
Forecast: 57 / 76 °F
Wind: 7 mph from East

Location: Muenster / Osnabrueck

Current Time: Sep 17, 2014 at 12:12:47 PM

Latest Report: Sep 17, 2014 at 11:20 AM


Visibility: 10 mi

Pressure: 29.92 "Hg

Humidity: 69%

Dew point: 59 °F

Location of MünsterLocation

Historic Weather in Münster — Graph

°F

Münster temperature yesterday

Maximum temperature yesterday: 77 °F (at 2:20 PM)
Minimum temperature yesterday: 57 °F (at 6:50 AM)
Average temperature yesterday: 67 °F

Past Weeks' High & Low Weather Summary

 TemperatureHumidityPressure
High77 °F (Sep 4, 4:20 PM)100% (Sep 2, 10:20 AM)30.27 "Hg (Sep 2, 10:20 AM)
Low46 °F (Sep 9, 6:20 AM)49% (Sep 8, 5:20 PM)29.86 "Hg (Sep 6, 3:50 PM)
Average61 °F83%30.08 "Hg
* Reported Sep 2 10:20 AM — Sep 17 10:50 AM, Münster, Weather by CustomWeather, © 2014

Note: Actual official high and low records may vary slightly from our data, if they occured in-between our weather recording intervals... More about our weather records

Advertising

Münster weather history for previous 24 hours

 ConditionsComfort  
Time TempWeatherWind HumidityBarometerVisibility
10:50 AM
Sep 17
70 °FSunny.8 mph69%29.95 "Hg10 mi
10:20 AM68 °FSunny.7 mph73%29.95 "Hg10 mi
9:50 AM66 °FSunny.8 mph78%29.95 "Hg10 mi
9:20 AM64 °FSunny.7 mph83%29.95 "Hg10 mi
8:50 AM61 °FSunny.3 mph88%29.95 "Hg10 mi
8:20 AM57 °FFog.3 mph94%29.95 "HgN/A
7:50 AM55 °FCool.3 mph100%29.95 "HgN/A
7:20 AM55 °FSleet. Overcast.5 mph100%29.95 "HgN/A
6:50 AM54 °FSleet. Overcast.3 mph100%29.95 "HgN/A
6:20 AM55 °FFog.2 mph100%29.95 "HgN/A
5:50 AM57 °FClear.2 mph100%29.95 "Hg10 mi
5:20 AM57 °FClear.3 mph94%29.95 "Hg10 mi
4:50 AM61 °FClear.3 mph83%29.95 "Hg10 mi
4:20 AM63 °FClear.3 mph83%29.95 "Hg10 mi
3:50 AM61 °FClear.3 mph88%29.95 "Hg10 mi
3:20 AM63 °FClear.3 mph83%29.95 "Hg10 mi
2:50 AM63 °FClear.3 mph83%29.95 "Hg10 mi
2:20 AM63 °FClear.5 mph83%29.98 "Hg10 mi
1:50 AM63 °FClear.3 mph88%29.98 "Hg10 mi
1:20 AM59 °FClear.5 mph94%29.98 "Hg10 mi
12:20 AM61 °FClear.No wind88%29.98 "Hg10 mi
11:50 PM
Sep 16
61 °FClear.2 mph88%29.98 "Hg10 mi
11:20 PM63 °FClear.2 mph83%29.98 "Hg10 mi
10:50 PM66 °FClear.5 mph73%29.98 "Hg10 mi
10:20 PM64 °FClear.5 mph78%29.98 "Hg10 mi
9:50 PM64 °FClear.3 mph83%29.98 "Hg10 mi
9:20 PM66 °FClear.2 mph78%29.98 "Hg10 mi
8:50 PM66 °FClear.2 mph78%29.98 "Hg10 mi
8:20 PM66 °FScattered clouds.3 mph78%29.98 "HgN/A
7:50 PM70 °FScattered clouds.5 mph69%29.95 "HgN/A
7:20 PM72 °FScattered clouds.3 mph65%29.95 "HgN/A
6:50 PM72 °FPassing clouds.6 mph65%29.95 "HgN/A
6:20 PM73 °FScattered clouds.7 mph61%29.95 "HgN/A
5:50 PM73 °FScattered clouds.8 mph61%29.95 "HgN/A
5:20 PM75 °FScattered clouds.7 mph57%29.95 "HgN/A
4:50 PM77 °FScattered clouds.7 mph51%29.95 "HgN/A
4:20 PM77 °FScattered clouds.8 mph51%29.95 "HgN/A
3:50 PM77 °FPassing clouds.5 mph54%29.95 "HgN/A
3:20 PM77 °FScattered clouds.7 mph54%29.98 "HgN/A
2:50 PM75 °FPartly sunny.7 mph57%29.98 "HgN/A
2:20 PM77 °FPartly sunny.7 mph61%29.98 "HgN/A
1:50 PM73 °FPartly sunny.9 mph61%29.98 "HgN/A
1:20 PM73 °FPartly sunny.8 mph65%30.01 "HgN/A
12:50 PM73 °FScattered clouds.6 mph65%30.01 "Hg5 mi
12:20 PM72 °FScattered clouds.6 mph69%30.01 "Hg5 mi
Weather by CustomWeather, © 2014

See weather overviewHow to use our weather pages